Location: Nebula Knoll Observatory
(43.6666°N, 71.0000°W)
Time: 08:01:32
(UTC-04:00)

Daily predictions for brighter satellites

Satellite Brightness Start Highest point End
(mag) Time Altitude Azimuth Time Altitude Azimuth Time Altitude Azimuth
Meteor 1-24 Rocket 4.0 19:28:51 10° NNW 19:34:23 77° W 19:40:05 10° S
ISS -2.4 19:34:16 10° S 19:36:51 22° SE 19:39:27 10° E
Cosmos 2123 Rocket 4.1 19:33:45 10° N 19:40:07 85° E 19:46:23 10° S
Cosmos 1818 3.7 19:41:12 10° NW 19:46:41 86° WSW 19:52:06 10° SSE
Cosmos 1269 Rocket 4.1 19:42:08 10° NNW 19:47:22 59° ENE 19:52:35 10° SSE
COSMOS 2487 2.8 19:44:56 10° N 19:48:25 47° ENE 19:51:52 10° SE
FREGAT/IRIS 4.0 19:46:02 10° S 19:48:58 44° W 19:51:56 10° NNW
USA 215 4.5 19:45:40 10° E 19:49:54 18° ESE 19:54:06 10° SSE
Cosmos 1271 Rocket 3.8 19:46:52 10° SSE 19:50:10 25° E 19:53:30 10° NE
Cosmos 372 Rocket 4.3 19:45:37 10° S 19:50:26 44° ESE 19:55:19 10° NNE
Cosmos 1758 3.3 19:46:56 10° S 19:50:49 57° E 19:54:45 10° NNE
Cosmos 158 Rocket 4.1 19:47:38 10° NNW 19:52:41 55° ENE 19:57:49 10° SE
Lacrosse 5 2.8 19:49:58 10° WSW 19:54:54 50° NW 19:59:51 10° NE
Cosmos 1674 3.1 19:52:59 10° N 19:56:36 41° ENE 20:00:12 10° SSE
Cosmos 1953 2.3 19:53:12 10° S 19:57:13 62° E 20:01:14 10° NNE
Cosmos 1408 Rocket 3.8 19:55:02 10° N 19:59:23 49° ENE 20:03:42 10° SSE
Resurs 1-3 3.5 19:56:18 10° SSE 20:00:39 73° ENE 20:05:02 10° N
Helios 1B rocket 3.0 20:03:33 10° NNE 20:07:23 35° E 20:11:10 10° SSE
Meteor 1-4 Rocket 2.5 20:05:50 10° S 20:09:19 84° W 20:12:49 10° N
Cosmos 1939 Rocket 4.0 20:07:02 17° ESE 20:09:19 27° ENE 20:12:49 10° N
Cosmos 2061 Rocket 4.4 20:05:32 10° SSE 20:11:30 43° E 20:17:31 10° NNE
Spot 2 Rocket 3.7 20:09:11 10° S 20:14:17 78° WSW 20:19:26 10° NNW
Cosmos 2098 Rocket 4.4 20:07:38 10° S 20:15:01 84° E 20:22:36 10° N
Timation 2 Rocket 3.9 20:08:44 10° NNW 20:15:06 81° ENE 20:21:10 10° SSE
Lacrosse 5 rocket 1.1 20:12:15 10° NW 20:16:13 70° NE 20:18:26 23° ESE
Cosmos 1459 Rocket 4.1 20:10:35 10° SSE 20:16:33 50° E 20:22:28 10° NNE
Cosmos 1447 Rocket 4.5 20:11:02 10° N 20:17:13 88° W 20:23:22 10° S
Cosmos 1076 Rocket 3.8 20:15:22 10° NNW 20:19:36 70° W 20:23:49 10° S
SWAS 4.3 20:16:31 10° SSW 20:20:47 75° ESE 20:25:07 10° NNE
Cosmos 1544 4.3 20:18:36 10° SSW 20:22:07 45° WNW 20:25:41 10° N
Cosmos 2344 4.4 20:15:30 10° WSW 20:23:02 57° NW 20:31:53 10° NE
Cosmos 1867 3.7 20:18:47 10° SW 20:24:15 79° NW 20:29:45 10° NNE
CZ-2D R/B 3.6 20:20:42 10° S 20:24:33 68° WSW 20:28:27 10° NNW
Cosmos 2173 Rocket 4.0 20:18:43 10° SSE 20:24:44 57° E 20:30:53 10° NNE
H-2A R/B (2) 4.2 20:23:10 10° SSW 20:25:02 12° SSE 20:26:56 11° SSE
Cosmos 1833 Rocket 2.9 20:23:15 10° NNW 20:28:52 73° WSW 20:34:27 10° SSE
Helios 1A 2.9 20:26:17 10° SSE 20:30:25 86° ENE 20:34:38 10° NNW
ALOS 4.1 20:26:35 10° SSW 20:30:44 31° W 20:34:55 10° NNW
Cosmos 482 Debris 3.5 20:29:54 10° NW 20:31:14 41° NW 20:31:14 41° NW
Envisat 3.0 20:28:31 16° SSE 20:32:28 60° ENE 20:37:29 10° N
Cosmos 1184 Rocket 3.2 20:31:24 10° N 20:34:40 43° ENE 20:35:05 41° E
Cosmos 2278 Rocket 4.2 20:35:18 10° WSW 20:40:18 31° NW 20:45:19 10° N
ATLAS 5 CENTAUR R/B 1.8 20:37:53 10° SW 20:42:36 82° NW 20:47:46 10° NE
SeaSat 1 4.0 20:38:15 10° S 20:42:41 33° WSW 20:47:09 10° NW
Geosat 3.9 20:38:53 10° NNE 20:43:57 84° ESE 20:48:58 10° SSW
Cosmos 1733 3.3 20:41:05 10° SSW 20:44:56 76° W 20:48:51 10° N
ERS-1 Rocket 3.4 20:43:16 32° ESE 20:44:56 43° ENE 20:49:42 10° N
Cosmos 1766 Rocket 4.4 20:41:55 10° NNW 20:46:16 51° W 20:50:36 10° SSW
Cosmos 1470 3.0 20:42:36 10° SSW 20:46:34 69° W 20:50:32 10° N
Cosmos-2242 3.4 20:45:03 10° SSW 20:49:16 64° W 20:53:31 10° N
H-2A R/B 3.8 20:50:23 17° ENE 20:50:26 17° ENE 20:53:42 10° NNE
GP-B 3.8 20:48:06 10° SSW 20:52:26 55° W 20:56:49 10° N
Cosmos 1356 Rocket 3.3 20:49:30 10° N 20:53:36 62° ENE 20:54:14 53° ESE
Cosmos 2016 Rocket 3.9 20:50:43 10° S 20:56:53 73° E 21:03:01 10° NNE
USA 186 3.7 20:58:06 16° WSW 20:58:40 17° W 21:00:14 10° NW
Cosmos 1340 Rocket 3.6 20:55:57 10° NNW 20:59:52 51° W 21:02:27 19° SSW
BREEZE-M DEB (TANK) 4.0 20:56:51 10° W 21:00:18 68° NNW 21:12:08 10° ENE
Resurs 01 Rocket 4.0 20:58:15 10° SW 21:01:43 22° W 21:05:12 10° NW
CZ-4B DEB 3.7 21:01:12 34° SW 21:02:00 43° W 21:04:59 10° NNW
Cosmos 1725 Rocket 3.9 21:02:51 25° SSE 21:06:33 60° E 21:12:38 10° NNE
Cosmos 2221 4.2 21:09:05 21° NE 21:09:05 21° NE 21:10:50 10° NNE
MetOp-A 4.3 21:07:54 45° E 21:08:41 49° ENE 21:13:49 10° N
Cosmos 2082 Rocket 3.8 21:03:54 10° NW 21:08:49 31° WSW 21:13:43 10° SSW
Meteor 1-29 4.2 21:09:33 10° N 21:12:51 41° WNW 21:16:09 10° SW
ISS -2.9 21:09:55 10° WSW 21:12:44 49° NW 21:12:44 49° NW
ARGOS 3.7 21:13:46 40° ENE 21:13:52 40° ENE 21:18:50 10° N
Cosmos 1743 Rocket 4.4 21:13:08 10° NNW 21:17:26 50° W 21:19:40 26° SSW
H-2A R/B 4.3 21:20:00 13° NNE 21:20:00 13° NNE 21:20:46 10° NNE
Cosmos 1500 Rocket 3.7 21:14:10 10° NNW 21:18:28 67° W 21:19:25 50° SSW
SL-08 R/B 4.5 21:13:05 10° S 21:19:27 90° W 21:25:55 10° N
Meteor 1-11 4.1 21:14:21 10° N 21:19:58 88° WSW 21:21:49 44° S
Meteor 1-16 Rocket 4.4 21:16:08 10° SSW 21:22:00 80° W 21:27:58 10° N
SL-14 R/B 3.6 21:18:49 10° NNW 21:22:38 59° W 21:22:48 58° WSW
YAOGAN 6 3.2 21:24:20 57° NNW 21:24:20 57° NNW 21:27:25 10° NNW
CZ-3B DEB 3.8 21:18:51 10° W 21:25:25 28° NNW 21:28:24 14° NNE
Cosmos 2058 3.2 21:21:50 10° N 21:25:21 62° N 21:25:21 62° N
Cosmos 2251 Rocket 3.9 21:21:49 10° NNW 21:27:04 63° WSW 21:28:42 42° SSW
Tsikada Rocket 3.9 21:20:56 10° N 21:27:11 85° E 21:29:09 47° SSE
USA 215 3.1 21:27:07 10° NE 21:33:39 71° SE 21:40:09 10° SW
SPOT 1/Viking Rocket 4.2 21:34:49 43° NE 21:34:49 43° NE 21:39:02 10° N
Lacrosse 5 4.1 21:35:09 10° WNW 21:38:55 20° NNW 21:42:41 10° NE
Cosmos 2151 3.7 21:38:00 10° NNW 21:42:00 49° W 21:42:00 49° W
SPOT 5 3.0 21:42:54 77° NE 21:42:54 77° NE 21:48:01 10° N
Meteor 2-1 Rocket 4.1 21:43:32 66° SSW 21:44:24 87° W 21:50:06 10° N
Terra 3.7 21:52:12 21° NNE 21:52:12 21° NNE 21:54:11 10° N
Lacrosse 5 rocket 3.8 21:52:51 10° W 21:54:09 13° WSW 21:54:09 13° WSW
Cosmos 1626 4.3 21:53:19 10° NNW 21:54:52 23° NNW 21:54:52 23° NNW
Cosmos 2369 Rocket 2.6 22:01:47 55° NNE 22:01:47 55° NNE 22:06:08 10° NNE
MetOp-B 4.5 22:02:48 60° W 22:02:48 60° W 22:08:02 10° NNW
USA 267 3.4 22:06:11 57° NE 22:06:43 59° NNE 22:13:07 10° NW
Cosmos 2233 Rocket 4.0 22:10:13 70° WSW 22:10:32 72° W 22:16:42 10° N
Cosmos 2227 Rocket 4.5 22:12:25 10° NNE 22:14:29 13° NE 22:14:29 13° NE
Cosmos 1943 Rocket 4.2 22:28:51 19° NNE 22:28:51 19° NNE 22:30:21 10° NNE
ATLAS 5 CENTAUR R/B 4.5 22:24:44 10° WNW 22:28:11 18° NNW 22:31:52 10° NNE
H-2A R/B 3.1 22:31:01 43° NNW 22:31:01 43° NNW 22:34:34 10° NNW
CZ-4C R/B 3.9 22:48:37 27° NNE 22:48:37 27° NNE 22:51:36 10° NNE
ATLAS 3B R/B 4.5 23:06:57 21° NE 23:06:57 21° NE 23:09:07 10° NE
USA 215 4.1 23:10:18 10° NE 23:16:26 45° NNW 23:22:33 10° W
Lacrosse 5 4.4 23:19:53 10° NW 23:22:01 17° NNW 23:22:01 17° NNW
Cosmos 2297 Rocket 4.3 23:28:38 10° N 23:30:44 20° N 23:30:44 20° N
